User: anonymous   Login
Location: Unspecified
(0.0000°N, 0.0000°E)
Time: 01:23:00
(UTC+00:00)
Language:

OTV 4 - Orbit

View from above orbital plane
View from above orbital plane
View from above satellite
View from above satellite

Ground track
Ground track

The orbit data is extracted from the following two-line orbital elements,

1 40651U 15025A   17115.07442894 0.00000000  00000-0  00000-0 0    05
2 40651  38.0036  14.2419 0013000 326.5240  33.4752 15.80533098    01
Epoch (UTC): 25 April 2017 01:47:10
Eccentricity: 0.0013000
inclination: 38.0036°
perigee height: 320 km
apogee height: 337 km
right ascension of ascending node: 14.2419°
argument of perigee: 326.5240°
revolutions per day: 15.80533098
mean anomaly at epoch: 33.4752°
orbit number at epoch: 0

The dashed part of the orbit path shows where the satellite is in the earth's shadow,  

DLR